Location: NJAA Observatory
(40.6819°N, 74.8979°W)
Time: 02:04:47
(UTC-04:00)

Cosmos 1328 Rocket - Visible Passes

Search period start: 21 September 2014 00:00
Search period end: 01 October 2014 00:00
Orbit: 605 x 628 km, 82.5° (Epoch: 18 September)

Date Brightness Start Highest point End Pass type
(mag) Time Alt. Az. Time Alt. Az. Time Alt. Az.
21 Sep 3.4 20:28:25 10° S 20:32:47 69° E 20:37:12 10° NNE visible
21 Sep 6.8 22:10:09 10° W 22:11:06 11° WNW 22:12:03 10° NW visible
22 Sep 4.0 20:44:53 10° SSW 20:49:15 63° W 20:53:41 10° N visible
23 Sep 4.9 19:25:07 10° SE 19:28:17 20° E 19:31:29 10° NE visible
23 Sep 5.2 21:01:48 10° SW 21:05:49 34° WNW 21:09:53 10° N visible
24 Sep 4.1 19:40:34 10° SSE 19:44:34 35° E 19:48:38 10° NNE visible
24 Sep 6.2 21:19:16 10° WSW 21:22:29 19° WNW 21:25:43 10° NNW visible
25 Sep 3.5 19:56:35 10° S 20:00:57 67° E 20:05:23 10° NNE visible
25 Sep 6.9 21:38:02 10° W 21:39:15 11° WNW 21:40:28 10° NW visible
26 Sep 6.7 06:06:21 10° NNE 06:09:14 17° ENE 06:12:05 10° ESE visible
26 Sep 4.0 20:13:02 10° SSW 20:17:25 66° W 20:21:51 10° N visible
27 Sep 6.0 06:22:02 10° NNE 06:25:55 29° ENE 06:29:45 10° SE visible
27 Sep 5.3 20:29:55 10° SW 20:33:59 35° WNW 20:38:05 10° N visible
28 Sep 4.2 19:08:45 10° SSE 19:12:45 34° E 19:16:46 10° NNE visible
28 Sep 6.3 20:47:21 10° WSW 20:50:38 20° WNW 20:53:56 10° NNW visible
29 Sep 3.6 19:24:45 10° S 19:29:07 65° E 19:33:32 10° NNE visible
29 Sep 7.0 21:05:58 10° W 21:07:24 11° WNW 21:08:50 10° NW visible
30 Sep 6.7 05:34:35 10° NNE 05:37:22 16° ENE 05:40:08 10° ESE visible
30 Sep 4.0 19:41:10 10° SSW 19:45:35 68° W 19:50:01 10° N visible
